Burns, OR

11:19 AM PDT on July 22, 2017 (GMT -0700)
Burns Municipal

Weather History for KBNO - October, 2011

Change the Weather History Date:

Monday, October 3, 2011

  Actual Average Record
Temperature  
Mean Temperature 50 °F 49 °F  
Max Temperature 72 °F 68 °F 85 °F (1976)
Min Temperature 28 °F 30 °F 21 °F (2016)
Degree Days  
Heating Degree Days 15 16  
Month to date heating degree days 32 46  
Since 1 July heating degree days 251 465  
Cooling Degree Days 0 0  
Month to date cooling degree days 0 0  
Year to date cooling degree days 144 215  
Moisture  
Dew Point 28 °F    
Average Humidity 48    
Maximum Humidity 78    
Minimum Humidity 17    
Precipitation  
Precipitation T in 0.02 in 0.45 in (2008)
Month to date precipitation T 0.06  
Year to date precipitation 8.30 7.48  
Sea Level Pressure  
Sea Level Pressure 29.85 in    
Wind  
Wind Speed 6 mph (SW)    
Max Wind Speed 22 mph    
Max Gust Speed 31 mph    
Visibility 10 miles    
Events Rain    
T = Trace of Precipitation, MM = Missing Value Source: NWS Daily Summary

Daily Weather History Graph

Daily Weather History Graph

Search for Another Location

Airport or City:

Trip Planner

Search our weather history database for the weather conditions in past years. The results will help you decide how hot, cold, wet, or windy it might be!

Date:

Astronomy

Oct. 03, 2011 Rise Set
Actual Time 6:55 AM PDT 6:33 PM PDT
Civil Twilight 6:26 AM PDT 7:02 PM PDT
Nautical Twilight 5:53 AM PDT 7:35 PM PDT
Astronomical Twilight 5:20 AM PDT 8:08 PM PDT
Moon 2:06 PM PDT (10/3) 11:32 PM PDT (10/3)
Length of Visible Light 12h 35m
Length of Day
11h 38m
Waxing Crescent, 46% of the Moon is Illuminated
Oct 3
Waxing Crescent
Oct 3
First Quarter
Oct 11
Full
Oct 19
Last Quarter
Oct 26
New

Hourly Weather History & Observations

Time (PDT) Temp. Windchill Dew Point Humidity Pressure Visibility Wind Dir Wind Speed Gust Speed Precip Events Conditions
12:53 AM 41.0 °F - 30.0 °F 65% 29.88 in 10.0 mi Calm Calm - N/A   Clear
1:53 AM 39.9 °F - 28.9 °F 65% 29.88 in 10.0 mi Calm Calm - N/A   Clear
2:53 AM 39.0 °F - 28.9 °F 67% 29.89 in 10.0 mi Calm Calm - N/A   Clear
3:53 AM 36.0 °F 32.1 °F 27.0 °F 70% 29.90 in 10.0 mi West 4.6 mph - N/A   Clear
4:53 AM 33.1 °F - 25.0 °F 72% 29.91 in 10.0 mi Calm Calm - N/A   Clear
5:53 AM 30.9 °F - 24.1 °F 76% 29.92 in 10.0 mi Calm Calm - N/A   Clear
6:53 AM 28.9 °F 25.2 °F 23.0 °F 78% 29.93 in 10.0 mi WNW 3.5 mph - N/A   Clear
7:53 AM 35.1 °F - 26.1 °F 70% 29.94 in 10.0 mi Calm Calm - N/A   Clear
8:53 AM 48.0 °F - 28.0 °F 46% 29.92 in 10.0 mi Calm Calm - N/A   Clear
9:53 AM 59.0 °F - 26.1 °F 28% 29.90 in 10.0 mi Calm Calm - N/A   Clear
10:53 AM 62.1 °F - 30.0 °F 30% 29.89 in 10.0 mi Variable 3.5 mph - N/A   Clear
11:53 AM 66.0 °F - 27.0 °F 23% 29.87 in 10.0 mi South 12.7 mph 18.4 mph N/A   Clear
12:53 PM 68.0 °F - 23.0 °F 18% 29.85 in 10.0 mi South 16.1 mph 21.9 mph N/A   Clear
1:53 PM 69.1 °F - 28.9 °F 22% 29.83 in 10.0 mi South 13.8 mph 20.7 mph N/A   Clear
2:53 PM 72.0 °F - 28.9 °F 20% 29.79 in 10.0 mi SSW 17.3 mph 25.3 mph N/A   Clear
3:53 PM 70.0 °F - 23.0 °F 17% 29.79 in 10.0 mi SW 13.8 mph 24.2 mph N/A   Clear
4:53 PM 64.9 °F - 25.0 °F 22% 29.80 in 10.0 mi SW 6.9 mph - N/A   Clear
5:53 PM 57.0 °F - 26.1 °F 30% 29.81 in 10.0 mi WNW 8.1 mph - N/A   Clear
6:53 PM 55.0 °F - 25.0 °F 31% 29.82 in 10.0 mi West 6.9 mph - N/A   Partly Cloudy
7:53 PM 57.0 °F - 25.0 °F 29% 29.79 in 10.0 mi West 5.8 mph - N/A   Mostly Cloudy
8:53 PM 55.0 °F - 33.1 °F 43% 29.79 in 10.0 mi WSW 15.0 mph 19.6 mph 0.00 in Rain Light Rain
9:53 PM 53.1 °F - 39.0 °F 59% 29.77 in 10.0 mi Variable 3.5 mph - 0.00 in   Overcast
10:24 PM 53.6 °F - 35.6 °F 51% 29.84 in 10.0 mi West 8.1 mph - 0.00 in   Overcast
10:53 PM 55.0 °F - 33.1 °F 43% 29.78 in 10.0 mi South 4.6 mph 20.7 mph 0.00 in Rain Light Rain
11:53 PM 50.0 °F - 34.0 °F 54% 29.78 in 10.0 mi South 4.6 mph - 0.00 in   Scattered Clouds